COSMOS 531

Satellite information

Favourite Embed

Satellite Type and Status

PAYLOADIN ORBIT

Key statistics

Satellite COSMOS 531 at a glance.

Uptime

19400

Days in orbit

Revolutions

≈ 12.5

Per day

Orbit

LEO

Low Earth Orbit

Inclination

74.0

Latest

Satellite identification and parameters

Extended collection of information and parameters for COSMOS 531.

Object identification

Identified? True

Debris? False

Object name: COSMOS 531

International designator: 1972-087D

Object number (NORAD): 6266

Object ID (CCSDS): 6266

Country: COMMONWEALTH OF INDEPENDENT STATES (CIS)

Current information (Y/N): Y

RCS size: MEDIUM

Orbital parameters

Period: 114.759 minutes

Inclination: 74.0363 deg

SMA: 7822.612 km

Apoapsis: 1469.116 km

Periapsis: 1419.838 km

RAAN: 5.8733 deg

Eccentricy: 0.00314972

Argument of periapsis: 208.5277 deg

Mean anomaly: 233.615 deg

Mean motion: 12.54801662 rev/day

Mean motion (dot): -0.0000001 rev/day2

B* drag term: 0.000038338017 1/REarth

Two-line elements (TLE)

Creation date: Dec. 12, 2025, 10:14 a.m.

Reference frame: TEME

Reference center: EARTH

Epoch: Dec. 12, 2025, 6:23 a.m. UTC

TLE line 0: 0 COSMOS 531

TLE line 1: 1 06266U 72087D 25346.26638569 -.00000010 00000-0 38338-4 0 9990

TLE line 2: 2 06266 74.0363 5.8733 0031497 208.5277 233.6150 12.54801662432820

Live tracking on map

Real-time ground track for satellite COSMOS 531.

In-orbit conjunctions

A list of the most updated potential collisions computed for object COSMOS 531.

Target Orbit TCA Probability of collision Miss distance Type
DELTA 1 DEB SSO 2025-09-13 02:26:59 0.0005657528 116.0 (m) DEBRIS
DELTA 1 DEB SSO 2024-09-26 04:19:26 0.0001551645 472.0 (m) DEBRIS

Associated space launch

Military communications satellites

COSMOS 531 was lifted into orbit during the mission ‘Kosmos-3M | Strela-1M 33-40’, on board a Kosmos-3M space rocket.

The launch took place on Nov. 1, 1972, 2:08 a.m. from 132/2.

For more information about the launch, click the button.

Launch to space Kosmos-3M | Strela-1M 33-40
Kosmos-3M | Strela-1M 33-40

Agency: N/A

Status: Launch Successful

Launch date: Nov. 1, 1972, 2:08 a.m. UTC

Rocket: Kosmos-3M

Launch pad: 132/2

Location: Plesetsk Cosmodrome, Russian Federation

...

Latest news about this satellite

There are no fresh news available about this satellite. Check back as we update our databases every day.


Newsletter sign-up

Weekly statistics, charts and insights to help you stay on top of the space industry.